TELKOM 4 (MERAH PUTIH) (43587 NORAD) Tracking and Keplerian Element Data

This shows tracking and keplerian element data for the satellite.

Feedback or suggestion? Click here.




ElementValue
Catalog43587
NameTELKOM 4 (MERAH PUTIH)
Epoch Orbit112
Epoch Day322.54016878
Epoch Year2018
RAAN327.3389
Inclination0.0098
Eccentricity0.0001341
Argument of Perigee275.7767
Mean Anonmoly116.9047
Mean Motion1.00271883
Decay Rate-3.36E-06
L11 43587U 18064A 18322.54016878 -.00000336 00000-0 00000-0 0 9994
L22 43587 0.0098 327.3389 0001341 275.7767 116.9047 1.00271883 1123

Live tracking and technical data element details for TELKOM 4 (MERAH PUTIH) (NORAD 43587). TELKOM 4 (MERAH PUTIH) can be tracked NOW for your location showing map with azimuth and elevation plus other details from your city location.

Track the satellite on the map from your city or location and see movement details for azimuth, elevation, latitude, longitude, range, height, and movement on the map or in text.







IsCatalogInMostPopularTable: catalog: 43587, numindb: 43
Update: records affected: 1



GetName: 43587 TELKOM 4 (MERAH PUTIH)

Hit Count: updated at: Tue, 20 Nov 2018 11:07:06 GMT